Current weather by "City, St" or "zip code"  
 

Current Conditions: HAZLETON

Cloudy


53.6 F

Last Updated on Sep 28 2022, 06:55 PM EDT
Humidity: 94%
Wind Speed: 0.0 mph
Barometer 30.26 in
Dewpoint: 51.8 F
Visibility: 10.00 mi
Precip: --
Heat Index: NA
Wind Chill: NA
Current conditions at:

HAZLETON (KHZL)

Lat: 40.9799999 Lon: 76

Local Radar Image active severe weather and emergency alerts image image weather storm and storm spotter reports image weather observation monitoring service image
Local
Radar
Active
Alerts
Storm Reports Obs
Monitoring

Sign-up For Email & Text Message Weather Alert Notification Services



Advertise Here

Observation History for HAZLETON


Time Wind
(mph)
Vis
(mi)
Weather Precip (in) Temperature (F) Relative
Humidity
Wind
Chill
(F)
Heat
Index
(F)
Pressure
Air Dwpt altimeter
(in)
sea level
(mb)
Rmks
06:55 PM EDT 0.0 10.00 Cloudy -- 53.6 51.8 94% NA NA 30.26 1024.7
06:15 PM EDT 10.00 Mostly Cloudy -- NULL % NA NA M
05:55 PM EDT 0.0 10.00 Cloudy -- 53.6 50.0 88% NA NA M
05:35 PM EDT 0.0 10.00 Cloudy -- 53.6 50.0 88% NA NA 30.25 1024.1
05:15 PM EDT 4.00 Light Rain -- NULL % NA NA M
04:55 PM EDT 3.4 10.00 Cloudy -- 60.8 50.0 68% NA NA 30.21 1023.0
04:35 PM EDT 10.00 Cloudy -- NULL % NA NA M
04:15 PM EDT 10.00 Light Rain -- NULL % NA NA M
03:55 PM EDT NW 3.4 10.00 Cloudy -- 59.0 50.0 72% NA NA 30.21 1023.0
03:35 PM EDT 10.00 Cloudy -- NULL % NA NA M
03:15 PM EDT 4.7 10.00 Rain -- 59.0 50.0 72% NA NA 30.19 1022.4
02:55 PM EDT 0.0 10.00 Cloudy -- 60.8 48.2 63% NA NA 30.19 1022.4
02:35 PM EDT 0.0 10.00 Light Rain -- 59.0 48.2 67% NA NA 30.19 1022.4
02:15 PM EDT W 4.7 10.00 Cloudy -- 60.8 48.2 63% NA NA 30.18 1022.0
01:55 PM EDT 4.7 10.00 Cloudy -- 60.8 48.2 63% NA NA 30.18 1022.0
01:15 PM EDT 10.00 Cloudy -- NULL % NA NA M
12:55 PM EDT W 3.4 10.00 Mostly Cloudy -- 60.8 48.2 63% NA NA 30.19 1022.4
12:15 PM EDT 0.0 10.00 Mostly Cloudy -- 59.0 48.2 67% NA NA 30.19 1022.4
11:55 AM EDT NW 3.4 10.00 Mostly Cloudy -- 55.4 48.2 77% NA NA 30.19 1022.4
11:15 AM EDT 10.00 Cloudy -- NULL % NA NA M
10:55 AM EDT 3.4 10.00 Cloudy -- 51.8 46.4 82% NA NA 30.19 1022.4
10:35 AM EDT 10.00 Cloudy -- NULL % NA NA M
10:15 AM EDT 10.00 Cloudy -- NULL % NA NA M
09:55 AM EDT 3.4 10.00 Cloudy -- 50.0 46.4 87% NA NA M

Regional Weather Observation


AVOCA/WILKES B. (KAVP)

Cloudy
59.0 F

HAZLETON (KHZL)

Cloudy
53.6 F

MT. POCONO (KMPO)

Mostly Cloudy
53.1 F

()


F

LEHIGHTON (K22N)

Cloudy
57.2 F

MUIR AAF/INDIANT (KMUI)

Mostly Cloudy
NULL F

Advertise Here


Advertise Here